Weather History for Gustavus, AK

Change the Weather History Date:

Sunday, March 30, 2014

  Actual Average Record
Temperature  
Mean Temperature 36 °F -  
Max Temperature 50 °F 43 °F 51 °F (1954)
Min Temperature 21 °F 31 °F 14 °F (1963)
Degree Days  
Heating Degree Days 30    
Moisture  
Dew Point 19 °F    
Average Humidity 54    
Maximum Humidity 86    
Minimum Humidity 26    
Precipitation  
Precipitation 0.00 in - - ()
Sea Level Pressure  
Sea Level Pressure 29.87 in    
Wind  
Wind Speed 2 mph (WNW)    
Max Wind Speed 9 mph    
Max Gust Speed -    
Visibility 10 miles    
Events      
Averages and records for this station are not official NWS values.
T = Trace of Precipitation, MM = Missing Value Source: NWS Daily Summary

Daily Weather History Graph

Daily Weather History Graph

Search for Another Location

Airport:

Trip Planner

Search our weather history database for the weather conditions in past years. The results will help you decide how hot, cold, wet, or windy it might be!

Date:

Astronomy

Mar. 30, 2014 Rise Set
Actual Time 6:35 AM AKDT 7:40 PM AKDT
Civil Twilight 5:54 AM AKDT 8:21 PM AKDT
Nautical Twilight 5:05 AM AKDT 9:11 PM AKDT
Astronomical Twilight 4:09 AM AKDT 10:07 PM AKDT
Moon 6:25 AM AKDT (3/30) 8:10 PM AKDT (3/30)
Length of Visible Light 14h 26m
Length of Day
13h 04m
New Moon, 0% of the Moon is Illuminated
Mar 30
New Moon
Apr 7
First Quarter
Apr 14
Full
Apr 21
Last Quarter
Apr 28
New

Hourly Weather History & Observations

Time (AKDT) Temp. Windchill Dew Point Humidity Pressure Visibility Wind Dir Wind Speed Gust Speed Precip Events Conditions
12:16 AM 30.2 °F 23.4 °F 21.2 °F 69% 29.75 in 10.0 mi NNW 6.9 mph - N/A   Clear
12:56 AM 32.0 °F - 21.2 °F 64% 29.76 in 10.0 mi Calm Calm - N/A   Clear
1:36 AM 28.4 °F - 19.4 °F 69% 29.77 in 10.0 mi Calm Calm - N/A   Clear
1:56 AM 28.4 °F - 19.4 °F 69% 29.77 in 10.0 mi Calm Calm - N/A   Clear
2:16 AM 26.6 °F - 19.4 °F 74% 29.78 in 10.0 mi Calm Calm - N/A   Clear
2:36 AM 26.6 °F - 19.4 °F 74% 29.78 in 10.0 mi Calm Calm - N/A   Clear
2:56 AM 26.6 °F - 17.6 °F 69% 29.78 in 10.0 mi Calm Calm - N/A   Clear
3:16 AM 24.8 °F - 17.6 °F 74% 29.78 in 10.0 mi Calm Calm - N/A   Clear
3:36 AM 24.8 °F - 15.8 °F 69% 29.79 in 10.0 mi Calm Calm - N/A   Clear
3:56 AM 24.8 °F - 17.6 °F 74% 29.79 in 10.0 mi Calm Calm - N/A   Clear
4:16 AM 24.8 °F 20.5 °F 19.4 °F 80% 29.79 in 10.0 mi North 3.5 mph - N/A   Clear
4:36 AM 24.8 °F - 15.8 °F 69% 29.79 in 10.0 mi Calm Calm - N/A   Clear
5:16 AM 23.0 °F - 17.6 °F 80% 29.80 in 10.0 mi Calm Calm - N/A   Clear
5:36 AM 21.2 °F - 15.8 °F 80% 29.80 in 10.0 mi Calm Calm - N/A   Clear
5:56 AM 21.2 °F - 15.8 °F 80% 29.81 in 10.0 mi Calm Calm - N/A   Clear
6:16 AM 21.2 °F - 17.6 °F 86% 29.81 in 10.0 mi Calm Calm - N/A   Clear
6:36 AM 21.2 °F - 15.8 °F 80% 29.81 in 10.0 mi Calm Calm - N/A   Clear
6:56 AM 21.2 °F - 17.6 °F 86% 29.82 in 10.0 mi Calm Calm - N/A   Clear
7:16 AM 21.2 °F - 17.6 °F 86% 29.82 in 10.0 mi Calm Calm - N/A   Clear
7:36 AM 21.2 °F - 15.8 °F 80% 29.83 in 10.0 mi Calm Calm - N/A   Clear
7:56 AM 24.8 °F - 17.6 °F 74% 29.83 in 10.0 mi Calm Calm - N/A   Clear
8:16 AM 26.6 °F - 21.2 °F 80% 29.83 in 10.0 mi Calm Calm - N/A   Clear
8:36 AM 28.4 °F - 21.2 °F 74% 29.84 in 10.0 mi Calm Calm - N/A   Clear
8:56 AM 33.8 °F - 23.0 °F 65% 29.84 in 10.0 mi Calm Calm - N/A   Clear
9:16 AM 35.6 °F - 23.0 °F 60% 29.84 in 10.0 mi Calm Calm - N/A   Clear
9:36 AM 37.4 °F - 24.8 °F 60% 29.84 in 10.0 mi Calm Calm - N/A   Clear
9:56 AM 39.2 °F - 23.0 °F 52% 29.85 in 10.0 mi Calm Calm - N/A   Clear
10:16 AM 39.2 °F - 24.8 °F 56% 29.85 in 10.0 mi Calm Calm - N/A   Clear
10:36 AM 41.0 °F - 21.2 °F 45% 29.86 in 10.0 mi Calm Calm - N/A   Clear
10:56 AM 42.8 °F 40.1 °F 24.8 °F 49% 29.86 in 10.0 mi SSE 4.6 mph - N/A   Clear
11:16 AM 42.8 °F 40.1 °F 21.2 °F 42% 29.86 in 10.0 mi ESE 4.6 mph - N/A   Clear
11:36 AM 42.8 °F 39.3 °F 23.0 °F 46% 29.87 in 10.0 mi ESE 5.8 mph - N/A   Clear
11:56 AM 44.6 °F 42.2 °F 21.2 °F 39% 29.87 in 10.0 mi ESE 4.6 mph - N/A   Clear
12:16 PM 44.6 °F 41.4 °F 21.2 °F 39% 29.87 in 10.0 mi SE 5.8 mph - N/A   Clear
12:36 PM 44.6 °F - 21.2 °F 39% 29.88 in 10.0 mi Calm Calm - N/A   Clear
12:56 PM 46.4 °F 45.2 °F 23.0 °F 40% 29.88 in 10.0 mi South 3.5 mph - N/A   Clear
1:16 PM 46.4 °F 44.3 °F 23.0 °F 40% 29.88 in 10.0 mi SW 4.6 mph - N/A   Clear
1:36 PM 46.4 °F 43.5 °F 24.8 °F 43% 29.88 in 10.0 mi SE 5.8 mph - N/A   Clear
1:56 PM 48.2 °F - 23.0 °F 37% 29.89 in 10.0 mi SSW 5.8 mph - N/A   Clear
2:16 PM 46.4 °F 42.9 °F 24.8 °F 43% 29.89 in 10.0 mi SSW 6.9 mph - N/A   Clear
2:36 PM 48.2 °F - 23.0 °F 37% 29.88 in 10.0 mi South 5.8 mph - N/A   Clear
2:56 PM 48.2 °F - 23.0 °F 37% 29.89 in 10.0 mi SSW 4.6 mph - N/A   Clear
3:16 PM 48.2 °F - 19.4 °F 32% 29.89 in 10.0 mi SW 3.5 mph - N/A   Clear
3:36 PM 50.0 °F - 15.8 °F 26% 29.89 in 10.0 mi WSW 6.9 mph - N/A   Clear
3:56 PM 50.0 °F - 15.8 °F 26% 29.89 in 10.0 mi West 5.8 mph - N/A   Clear
4:16 PM 50.0 °F - 15.8 °F 26% 29.90 in 10.0 mi West 5.8 mph - N/A   Clear
4:36 PM 50.0 °F - 15.8 °F 26% 29.90 in 10.0 mi WNW 6.9 mph - N/A   Clear
4:56 PM 48.2 °F - 15.8 °F 27% 29.91 in 10.0 mi NW 9.2 mph - N/A   Clear
5:16 PM 48.2 °F - 15.8 °F 27% 29.91 in 10.0 mi NW 8.1 mph - N/A   Mostly Cloudy
5:36 PM 48.2 °F - 15.8 °F 27% 29.91 in 10.0 mi NW 8.1 mph - N/A   Overcast
5:56 PM 48.2 °F - 15.8 °F 27% 29.92 in 10.0 mi NW 6.9 mph - N/A   Overcast
6:16 PM 46.4 °F 42.9 °F 15.8 °F 29% 29.92 in 10.0 mi NW 6.9 mph - N/A   Overcast
6:36 PM 46.4 °F 42.9 °F 15.8 °F 29% 29.93 in 10.0 mi NW 6.9 mph - N/A   Overcast
6:56 PM 44.6 °F 41.4 °F 17.6 °F 34% 29.93 in 10.0 mi NW 5.8 mph - N/A   Overcast
7:16 PM 44.6 °F 41.4 °F 17.6 °F 34% 29.94 in 10.0 mi NW 5.8 mph - N/A   Overcast
7:36 PM 42.8 °F 39.3 °F 19.4 °F 39% 29.94 in 10.0 mi NW 5.8 mph - N/A   Overcast
7:56 PM 42.8 °F 40.1 °F 19.4 °F 39% 29.95 in 10.0 mi NW 4.6 mph - N/A   Overcast
8:16 PM 41.0 °F 38.0 °F 19.4 °F 42% 29.95 in 10.0 mi NNW 4.6 mph - N/A   Mostly Cloudy
8:36 PM 39.2 °F 37.0 °F 19.4 °F 45% 29.96 in 10.0 mi NNW 3.5 mph - N/A   Scattered Clouds
8:56 PM 37.4 °F - 19.4 °F 48% 29.97 in 10.0 mi Calm Calm - N/A   Clear
9:16 PM 35.6 °F 32.8 °F 21.2 °F 56% 29.97 in 10.0 mi NNW 3.5 mph - N/A   Clear
9:36 PM 33.8 °F 30.8 °F 21.2 °F 60% 29.98 in 10.0 mi NNW 3.5 mph - N/A   Clear
9:56 PM 33.8 °F 30.8 °F 19.4 °F 56% 29.98 in 10.0 mi NNE 3.5 mph - N/A   Clear
10:16 PM 32.0 °F - 19.4 °F 60% 29.99 in 10.0 mi Calm Calm - N/A   Clear
10:36 PM 32.0 °F - 19.4 °F 60% 29.99 in 10.0 mi Calm Calm - N/A   Clear
10:56 PM 30.2 °F - 19.4 °F 64% 30.00 in 10.0 mi Calm Calm - N/A   Clear
11:16 PM 30.2 °F - 19.4 °F 64% 30.01 in 10.0 mi Calm Calm - N/A   Clear
11:36 PM 28.4 °F - 19.4 °F 69% 30.01 in 10.0 mi Calm Calm - N/A   Clear
11:56 PM 28.4 °F - 19.4 °F 69% 30.02 in 10.0 mi Calm Calm - N/A   Clear